User: anonymous   Login
Location: Young's Pond
(41.2695°N, 72.7766°W)
Time: 19:38:55
(UTC-05:00)
Language:

CZ-4B R/B - Orbit

View from above orbital plane
View from above orbital plane
View from above satellite
View from above satellite

Ground track
Ground track

The orbit data is extracted from the following two-line orbital elements,

1 29093U 06015B   18021.77012297  .00003261  00000-0  75441-4 0  9999
2 29093  97.5114 143.4324 0059814 250.5212 108.9566 15.41404644651186
Epoch (UTC): 21 January 2018 18:28:58
Eccentricity: 0.0059814
inclination: 97.5114°
perigee height: 401 km
apogee height: 483 km
right ascension of ascending node: 143.4324°
argument of perigee: 250.5212°
revolutions per day: 15.41404644
mean anomaly at epoch: 108.9566°
orbit number at epoch: 65118

The dashed part of the orbit path shows where the satellite is in the earth's shadow,  

DLR